GSAT0205 (GALILEO 9) (40889 NORAD) Tracking and Keplerian Element Data

This shows tracking and keplerian element data for the satellite.

Feedback or suggestion? Click here.




ElementValue
Catalog40889
NameGSAT0205 (GALILEO 9)
Epoch Orbit1981
Epoch Day321.55859653
Epoch Year2018
RAAN297.9719
Inclination56.6189
Eccentricity0.0003152
Argument of Perigee332.5713
Mean Anonmoly27.4056
Mean Motion1.70474668
Decay Rate-2.1E-07
L11 40889U 15045A 18321.55859653 -.00000021 00000-0 00000-0 0 9999
L22 40889 56.6189 297.9719 0003152 332.5713 27.4056 1.70474668 19811

Live tracking and technical data element details for GSAT0205 (GALILEO 9) (NORAD 40889). GSAT0205 (GALILEO 9) can be tracked NOW for your location showing map with azimuth and elevation plus other details from your city location.

Track the satellite on the map from your city or location and see movement details for azimuth, elevation, latitude, longitude, range, height, and movement on the map or in text.







IsCatalogInMostPopularTable: catalog: 40889, numindb: 112
Update: records affected: 1



GetName: 40889 GSAT0205 (GALILEO 9)

Hit Count: updated at: Mon, 19 Nov 2018 13:04:50 GMT